sat.trackr.live / text

‹ back to catalog

SPACEEYE-T1

NORAD 63229 · 2025-052V

PAYLOAD ACTIVE UNKNOWN

§ Identity

Operator
Country
SKOR
Launch date
2025-03-15
Launch site
AFWTR
Launch vehicle
Mass (kg)
RCS (m²)

External: N2YO · Heavens-Above · Gunter

§ Orbital elements

Epoch: 2026-09-22T16:58:22.959552Z

Period
94.54 min
Inclination
97.3800°
Eccentricity
0.0005326
Mean motion
15.23207307 rev/d
Perigee alt
492.5 km
Apogee alt
499.8 km
Semi-major
6,874.3 km
B*
1.3597e-4
RAAN
156.6566°
Arg perigee
148.9298°
Mean anomaly
211.2255°
Rev number
8,468

§ Raw data

SPACEEYE-T11 63229U 25052V   26265.70721018  .00003147  00000+0  13597-3 0  99952 63229  97.3800 156.6566 0005326 148.9298 211.2255 15.23207307 84687

JSON: /api/v1/satellites/63229 · /tle

For live sub-satellite position, see the globe view (requires WebGL).

§ Visibility from observer

Set your observer location to see the next 7 days of passes ≥ 10°. The values pass through the URL so the page stays shareable.

No JS? Fill the form by hand. The geolocation button needs JavaScript.